#timestamp,LO_Frequency,Hit,StdDev 
1631865615.3,286046994.9,P
1631865635.1,286046992.1,Y
1631865655.8,286046997.6,P
1631865675.7,286047001.1,N
1631865695.5,286046997.0,N
1631865715.4,286046995.0,N
1631865735.2,286047000.3,N
1631865755.0,286047002.1,N
1631865755.9,286047002.1,N
1631865775.8,286047000.6,N
1631865795.6,286047004.0,N
1631865815.5,286047004.3,N
1631865835.3,286047002.5,N
1631865855.1,286047002.7,N
1631865875.9,286047004.5,N
1631865895.7,286047007.8,N
1631865915.5,286047006.3,N
1631865935.4,286047008.7,N
1631865955.2,286047006.7,N
1631865975.1,286047009.8,N
1631865976.0,286047009.8,N
1631865995.8,286047013.8,Y
1631866015.6,286047003.0,P
1631866035.5,286047001.1,P
1631866055.3,286046999.1,N
1631866075.2,286047004.0,N
1631866095.9,286047003.6,N
1631866115.7,286047003.7,N
1631866135.6,286047004.9,N
1631866155.4,286047006.9,Y
1631866175.3,286047001.6,P
1631866195.1,286047001.7,N
1631866196.0,286047001.7,P
1631866215.8,286046996.7,Y
1631866235.7,286046994.8,P
1631866255.5,286046991.6,N
1631866275.4,286046989.2,N
1631866295.2,286046986.0,N
1631866315.0,286046982.2,Y
1631866315.9,286046982.2,P
1631866335.8,286046990.2,N
1631866355.6,286046993.4,N
1631866375.5,286046997.9,N
1631866395.3,286046994.2,N
1631866445.2,286046999.5,E
1631866455.1,286046997.9,N
1631866456.0,286046997.9,P
1631866475.8,286046992.1,P
1631866495.7,286046996.4,N
1631866515.5,286047003.0,N
1631866535.3,286047008.7,N
1631866555.2,286047008.8,N
1631866575.0,286047002.8,N
1631866575.9,286047002.8,N
1631866595.8,286046997.2,N
1631866615.6,286046996.0,N
1631866635.4,286046994.8,N
1631866655.3,286046992.4,N
1631866675.1,286046989.8,N
1631866695.9,286046985.8,N
1631866715.7,286046984.3,N
1631866735.5,286046982.9,N
1631866755.4,286046980.6,N
1631866775.2,286046982.9,N
1631866795.0,286046986.7,N
1631866796.0,286046986.7,N
1631866815.8,286046986.3,N
1631866835.6,286046983.4,N
1631866855.5,286046980.0,N
1631866875.3,286046978.1,N
1631866895.1,286046979.1,N
1631866915.9,286046989.5,N
1631866935.7,286046992.7,N
1631866955.5,286046994.7,N
1631866975.4,286046989.0,N
1631866995.2,286046989.3,N
1631867015.1,286046991.4,N
1631867016.0,286046991.4,N
1631867035.8,286046989.4,N
1631867055.6,286046986.6,N
1631867075.5,286046987.9,N
1631867095.3,286046984.8,N
1631867115.2,286046979.8,Y
1631867135.9,286046993.6,P
1631867155.7,286046997.5,N
1631867175.6,286046997.5,N
1631867195.4,286046994.0,N
1631867215.2,286046990.2,Y
1631867235.1,286046994.3,P
1631867236.0,286046994.3,P
1631867255.8,286046993.5,P
1631867275.7,286046993.7,Y
1631867295.5,286046995.5,P
1631867315.3,286046992.8,P
1631867335.2,286046989.7,P
1631867355.0,286046986.1,Y
1631867355.9,286046986.1,P
1631867375.8,286046998.5,N
1631867395.6,286047000.8,N
1631867415.4,286046999.4,N
1631867435.3,286047001.0,N
1631867455.1,286046997.7,N
1631867475.8,286046995.1,N
1631867495.7,286047000.3,N
1631867515.5,286046999.2,N
1631867535.4,286046997.8,N
1631867555.2,286046993.8,N
1631867575.1,286046992.2,N
1631867576.0,286046992.2,N
1631867595.8,286046997.6,N
1631867615.6,286047000.3,N
1631867635.5,286047000.8,N
1631867655.3,286046998.7,N
1631867675.1,286047002.2,N
1631867695.9,286047003.0,N
1631867715.7,286047003.1,N
1631867735.6,286047000.7,N
1631867755.4,286047001.2,N
1631867775.2,286046997.8,N
1631867795.1,286046990.7,N
1631867796.0,286046990.7,N
1631867815.8,286046988.6,N
1631867835.6,286046991.0,N
1631867855.5,286046988.7,N
1631867875.3,286046986.6,N
1631867895.2,286046985.9,N
1631867915.9,286046983.0,Y
1631867935.7,286046984.2,P
1631867955.6,286046984.9,N
1631867975.4,286046982.3,P
1631867995.2,286046986.8,N
1631868015.1,286046983.3,Y
1631868016.0,286046983.3,P
1631868035.8,286046991.8,P
1631868055.7,286046991.0,N
1631868075.5,286046991.5,N
1631868095.3,286046992.9,N
1631868115.2,286046992.2,N
1631868135.0,286046996.3,N
1631868135.9,286046996.3,N
1631868155.8,286046999.8,N
1631868175.6,286047002.4,N
1631868195.4,286047005.8,N
1631868215.3,286047005.4,N
1631868235.1,286046998.6,N
1631868255.8,286046995.2,N
1631868275.7,286046996.2,N
1631868295.5,286046995.7,N
1631868315.4,286046992.2,N
1631868335.2,286046989.8,N
1631868355.0,286046985.7,N
1631868355.9,286046985.7,N
1631868375.8,286046986.4,N
1631868395.6,286046987.5,N
1631868415.5,286046990.8,N
1631868435.3,286046993.0,N
1631868455.1,286046997.1,N
1631868475.9,286046995.4,N
1631868495.7,286046990.4,N
1631868515.5,286046987.1,N
1631868535.4,286046991.1,N
1631868555.2,286046990.8,N
1631868575.1,286046994.3,N
1631868576.0,286046994.3,N
1631868595.8,286046997.0,N
1631868615.6,286046999.4,N
1631868635.5,286046996.8,N
1631868655.3,286046994.0,N
1631868675.1,286046991.9,N
1631868695.9,286046991.6,N
1631868715.7,286046988.2,N
1631868735.6,286046985.9,N
1631868755.4,286046983.8,Y
1631868775.2,286046987.6,P
1631868795.1,286046985.1,P
1631868796.0,286046985.1,P
1631868815.8,286046981.4,Y
1631868835.7,286046994.2,P
1631868855.5,286047003.4,N
1631868875.3,286047011.1,N
1631868895.2,286047017.1,N
1631868915.0,286047020.2,N
1631868915.9,286047020.2,N
1631868935.7,286047017.9,N
1631868955.6,286047016.2,N
1631868975.4,286047020.5,N
1631868995.3,286047020.9,N
1631869015.1,286047018.0,N
1631869016.0,286047018.0,N
1631869035.8,286047013.9,N
1631869055.7,286047007.9,N
1631869075.5,286047007.3,N
1631869095.3,286047004.4,N
1631869115.2,286047002.0,N
1631869135.0,286046998.2,N
1631869135.9,286046998.2,N
1631869155.8,286046997.6,N
1631869175.6,286046994.7,N
1631869195.4,286046991.2,N
